{"data":{"norad_id":68461,"intl_designator":"2026-067AX","name":"IRIDE-MS1-EAGLET 2-12","alt_names":[],"object_type":"PAYLOAD","status":"ACTIVE","operator":null,"country":"IT","launch_date":"2026-03-30","launch_site_code":"AFWTR","launch_vehicle":null,"mission":null,"orbit_class":"UNKNOWN","rcs_meters":null,"size_class":null,"mass_kg":null,"dimensions":null,"purposes":[],"wikipedia_slug":null,"has_3d_model":false,"image_url":null,"decayed_at":null,"tle_current":{"epoch":"2026-05-25T03:44:27.086784Z","epoch_age_seconds":71759,"freshness":"FRESH","line1":"1 68461U 26067AX  26145.15586906  .00006803  00000+0  33961-3 0  9995","line2":"2 68461  97.4535 103.9238 0005271 127.3612 232.8102 15.17802600  8447","mean_motion":15.178026,"eccentricity":0.0005271,"inclination_deg":97.4535,"raan_deg":103.9238,"arg_perigee_deg":127.3612,"mean_anomaly_deg":232.8102,"bstar":0.00033961,"rev_number":844,"period_min":94.87399744868,"perigee_km":508.85115529096,"apogee_km":516.11524710706,"semimajor_km":6890.620201199,"source":"CELESTRAK","updated_at":"2026-05-25T13:38:07.845839Z"}}}